Weather Roundup
Issued by NWS Chicago, IL

Home | Current Version | Previous Version | Text Only | Print | Product List | Glossary Off
Versions: 1 2 3 4 5 6 7 8 9 10 11 12 13 14 15 16 17 18 19 20 21 22 23 24 25 26 27 28 29 30 31 32 33 34 35 36 37 38 39 40 41 42 43 44 45 46 47 48 49 50

000
NZUS59 KLOT 251708
HRRLOT

CHICAGO AREA WEATHER ROUNDUP
NATIONAL WEATHER SERVICE CHICAGO/ROMEOVILLE IL
1200 PM CDT TUE APR 25 2017

NOTE: "FAIR" INDICATES FEW OR NO CLOUDS BELOW 12,000 FEET WITH NO
SIGNIFICANT WEATHER AND/OR OBSTRUCTIONS TO VISIBILITY.

* THESE STATIONS ARE NOT UNDER NWS QUALITY CONTROL. THEY ALSO MAY NOT
  REPORT WEATHER SUCH AS PRECIPITATION OR FOG.

ILZ005-006-012>014-019>023-251800-
NORTHEAST ILLINOIS

CITY           SKY/WX    TMP DP  RH WIND       PRES   REMARKS
OHARE          CLOUDY    74  49  41 S14       29.67F
MIDWAY         CLOUDY    74  50  42 SE10      29.68F
AURORA         MOSUNNY   74  50  42 S15       29.66F
LANSING*       MOSUNNY   71  54  55 SE12      29.70F
JOLIET*        PTSUNNY   74  52  46 S7G18     29.67F
WAUKEGAN       CLOUDY    65  52  62 SE15      29.67F
DUPAGE AIRPORT PTSUNNY   73  52  47 S12G23    29.67F
WHEELING       MOSUNNY   71  49  45 S13       29.69F
KANKAKEE*      MOSUNNY   78  51  38 S12G22    29.69F
MORRIS*        PTSUNNY   76  49  38 S16G23    29.65F
LEWIS AIRPORT* CLOUDY    73  55  52 S15       29.67F
NORTHERLY ISL    N/A     64  52  64 SE9         N/A
$$

WIZ051-052-058>065-066-070>072-251800-
SOUTHEAST WISCONSIN

CITY           SKY/WX    TMP DP  RH WIND       PRES   REMARKS
MILWAUKEE      PTSUNNY   63  51  65 SE14      29.68S
KENOSHA*       CLOUDY    70  53  54 SE13      29.67F
RACINE*        MOSUNNY   60  49  66 S16       29.70S
WAUKESHA       SUNNY     70  43  37 S12G21    29.66F
WEST BEND      SUNNY     68  50  52 E9        29.66S
$$

INZ001>003-010>013-019-020-251800-
NORTHWEST INDIANA

CITY           SKY/WX    TMP DP  RH WIND       PRES   REMARKS
GARY*          PTSUNNY   73  46  38 SE9       29.70F
MICHIGAN CITY* NOT AVBL
RENSSELAER*    NOT AVBL
VALPARAISO     MOSUNNY   74  50  42 S8        29.73F
$$

LMZ740>746-251800-
SOUTHERN LAKE MICHIGAN

STATION/POSITION TIME  SKY/WX   TEMP WIND        PRES    VSBY
                                AIR  DIR/SP/G
                 (UTC)          (F)  (DEG/KT/KT) (MB)    (MI)
HARRISON CRIB    1630            64  150/ 18/ 18   N/A
BURNHAM HARBOR   1700            61  120/  8/ 11   N/A
CALUMET HARBOR   1648            71  150/ 10/ 14 1005.1F
BURNS HARBOR     1640            72  180/  8/ 15 1006.8F
MICHIGAN CITY    1640            68  160/  9/ 11   N/A
$$

ABBREVIATIONS USED IN REMARKS
   TC - TEMPERATURE IN CELSIUS
  WCI - WIND CHILL INDEX
   HX - HEAT INDEX
  VSB - VISIBILITY
$$




USA.gov is the U.S. government's official web portal to all federal, state and local government web resources and services.